User: anonymous   Login
Location: Caltech
(34.1382°N, 118.1253°W)
Time: 13:08:06
(UTC-07:00)
Language:

Cosmos 2219 Rocket - Orbit

View from above orbital plane
View from above orbital plane
View from above satellite
View from above satellite

Ground track
Ground track

The orbit data is extracted from the following two-line orbital elements,

1 22220U 92076B   15148.18042248  .00000138  00000-0  93511-4 0  9995
2 22220 070.9999 200.0122 0013927 328.6961 090.4704 14.16369366164434
Epoch (UTC): 28 May 2015 04:19:48
Eccentricity: 0.0013927
inclination: 70.9999°
perigee height: 827 km
apogee height: 848 km
right ascension of ascending node: 200.0122°
argument of perigee: 328.6961°
revolutions per day: 14.16369366
mean anomaly at epoch: 90.4704°
orbit number at epoch: 16443

The dashed part of the orbit path shows where the satellite is in the earth's shadow,  

DLR